Weather Roundup
Issued by NWS

Home | Current Version | Previous Version | Text Only | Print | Product List | Glossary On
Versions: 1 2 3 4 5 6 7 8 9 10 11 12 13 14 15 16 17 18 19 20 21 22 23 24 25 26 27 28 29 30 31 32 33 34 35 36 37 38 39 40 41 42 43 44 45 46 47 48 49 50
000
NZUS93 KARX 160910
HRRWXR

CURRENT HOURLY OBSERVATIONS ACROSS
MUCH OF THE UPPER MISSISSIPPI VALLEY
NATIONAL WEATHER SERVICE LA CROSSE WI
400 AM CDT WED APR 16 2014


...SOUTHEAST MINNESOTA...


CITY           SKY/WX    TMP DP  RH WIND       PRES   REMARKS
ROCHESTER      CLOUDY    32  18  56 SE20      30.00F WCI  20
ROCHESTER/MAYO CLOUDY    32  16  50 E14G20    30.02R WCI  22
WINONA         MOCLDY    34  21  60 SE10      30.09F WCI  26
AUSTIN         MOCLDY    32  21  64 SE21      29.97F WCI  20
ALBERT LEA     CLOUDY    34  19  55 SE20G29   29.93F WCI  22
DODGE CENTER   CLOUDY    34  19  55 SE16G22   29.99R WCI  23
PRESTON        CLOUDY    32  19  58 SE14      30.04S WCI  22
OWATONNA       MOCLDY    34  19  55 E22G31    29.94F WCI  22
FARIBAULT      CLOUDY    36  14  41 E15G24    29.96F WCI  26
$$

...ELSEWHERE IN MINNESOTA...


CITY           SKY/WX    TMP DP  RH WIND       PRES   REMARKS
MINNEAPOLIS    CLOUDY    33  17  51 E18       30.01F WCI  22
INTNL FALLS    PTCLDY    18   4  54 E6        30.11S WCI  10
DULUTH         CLOUDY    24  10  55 E8        30.08S WCI  15
RED WING       MOCLDY    36  18  48 SE10      30.05S WCI  28
REDWOOD FALLS  CLOUDY    34  20  56 E17G24    29.85F WCI  23
MANKATO        CLOUDY    34  19  55 SE23G32   29.90F WCI  22
WORTHINGTON    CLOUDY    36  21  55 SE17G25   29.75F WCI  25
FAIRMONT       CLOUDY    34  21  60 SE22G29   29.85F WCI  22
$$

...SOUTHWEST WISCONSIN...


CITY           SKY/WX    TMP DP  RH WIND       PRES   REMARKS
LA CROSSE      CLOUDY    33  17  51 SE9       30.11F WCI  25
PRAIRIE DU CHI PTCLDY    32  19  56 SE7       30.12R WCI  26
BOSCOBEL       PTCLDY    31  18  58 E5        30.14F WCI  26
LONE ROCK      PTCLDY    29  23  78 E8        30.16S WCI  21
PLATTEVILLE    CLEAR     29  22  73 E9        30.14S WCI  21
FORT MC COY    CLOUDY    30  18  61 E8        30.14F WCI  23
CAMP DOUGLAS   CLOUDY    28  20  73 SE8       30.15R WCI  20
VIROQUA        PTSUNNY   28  20  70 E10       30.09F WCI  19
WIS DELLS      CLOUDY    29  19  67 E6        30.16R WCI  23
$$

...ELSEWHERE IN WISCONSIN...


CITY           SKY/WX    TMP DP  RH WIND       PRES   REMARKS
MILWAUKEE      PTCLDY    27  22  81 S5        30.24R WCI  22
MADISON        CLOUDY    29  20  69 SE8       30.18S WCI  21
GREEN BAY      CLEAR     25  21  85 S5        30.22S WCI  19
EAU CLAIRE     LGT SNOW  28  25  88 E9        30.11F FOG     WCI  19
BLACK RVR FLS  CLOUDY    31  17  56 E6        30.13S WCI  25
MEDFORD        CLOUDY    25  18  74 SE5       30.12R WCI  19
WAUSAU         CLOUDY    22  16  78 E3        30.15R
WIS RAPIDS     CLOUDY    26  17  68 SE7       30.18R WCI  18
MARSHFIELD     CLOUDY    27  16  63 SE8       30.14R WCI  19
RICE LAKE      NOT AVBL
$$

...NORTHEAST IOWA...


CITY           SKY/WX    TMP DP  RH WIND       PRES   REMARKS
WATERLOO       CLOUDY    34  20  56 SE16G24   30.02S WCI  24
DUBUQUE        PTCLDY    29  20  69 SE15      30.11S WCI  18
DECORAH        CLOUDY    32  19  59 SE10G18   30.05S WCI  24
MASON CITY     CLOUDY    33  22  63 SE21G29   29.94F WCI  21
CHARLES CITY   CLOUDY    34  18  51 SE21      30.00F WCI  22
OELWEIN        CLOUDY   N/A N/A N/A SE20G26   30.05S
$$

...ELSEWHERE IN IOWA...


CITY           SKY/WX    TMP DP  RH WIND       PRES   REMARKS
DES MOINES     CLOUDY    42  27  55 S16       29.93F
IOWA CITY      CLEAR     32  23  69 SE9       30.10S WCI  24
FORT DODGE     CLOUDY    37  27  65 SE13G21   29.86F WCI  29
MARSHALLTOWN   CLOUDY    36  25  64 SE15G24   29.97F WCI  27
CEDAR RAPIDS   PTCLDY    33  22  63 SE10      30.05F WCI  25
$$

...NORTHERN ILLINOIS...


CITY           SKY/WX    TMP DP  RH WIND       PRES   REMARKS
CHICAGO-OHARE  PTCLDY    26  18  71 S8        30.23S WCI  18
DUPAGE         CLEAR     27  20  75 S6        30.22S WCI  20
CHICAGO-MIDWAY CLEAR     31  21  66 S8        30.25R WCI  23
MOLINE         CLEAR     32  21  64 SE12      30.15S WCI  23
ROCKFORD       PTCLDY    30  21  69 SE9       30.21S WCI  22
STERLING       CLEAR     30  21  69 SE7       30.18R WCI  23
PEORIA         CLEAR     34  22  61 SE9       30.20S WCI  27
$$

NOTE: "FAIR" INDICATES FEW OR NO CLOUDS BELOW 12,000 FEET WITH NO
SIGNIFICANT WEATHER AND/OR OBSTRUCTIONS TO VISIBILITY. WIND
SPEEDS ARE IN MILES-PER-HOUR.



USA.gov is the U.S. government's official web portal to all federal, state and local government web resources and services.